When you browse on this site, cookies collect data to enhance your experience and personalize the content and advertising you see.
Visit our Privacy Policy to learn more. By continuing to use the site, you agree to this use of cookies and data.
  • In Sweden
  • List of Countries
  • For 7 days
  • Water Temperature
  • Weather Map
  • Weather Widgets
  • user-avatar
    Login

    Hourly Weather Sunny Beach

    Today, 31 May, Sunday

    Time Temperature Precipitation Wind Pressure Humidity
    00:00 +12°C° 0 mm 2 mps 735 mmHg 90%
    01:00 +12°C° 0 mm 2 mps 735 mmHg 90%
    02:00 +12°C° 0 mm 2 mps 734 mmHg 90%
    03:00 +12°C° 0 mm 2 mps 734 mmHg 90%
    04:00 +10°C° 0 mm 2 mps 734 mmHg 90%
    05:00 +10°C° 0 mm 2 mps 734 mmHg 90%
    06:00 +13°C° 0 mm 2 mps 734 mmHg 86%
    07:00 +15°C° 0 mm 2 mps 734 mmHg 81%
    08:00 +17°C° 0 mm 2 mps 734 mmHg 77%
    09:00 +17°C° 0.6 mm 3 mps 734 mmHg 76%
    10:00 +18°C° 0.6 mm 3 mps 734 mmHg 76%
    11:00 +19°C° 0.6 mm 3 mps 734 mmHg 75%
    12:00 +19°C° 1.2 mm 3 mps 734 mmHg 75%
    13:00 +20°C° 1.2 mm 3 mps 734 mmHg 75%
    14:00 +20°C° 1.2 mm 3 mps 734 mmHg 75%
    15:00 +19°C° 1.3 mm 3 mps 733 mmHg 77%
    16:00 +19°C° 1.3 mm 2 mps 733 mmHg 79%
    17:00 +18°C° 1.3 mm 2 mps 733 mmHg 81%
    18:00 +17°C° 0.2 mm 2 mps 733 mmHg 82%
    19:00 +16°C° 0.2 mm 1 mps 733 mmHg 83%
    20:00 +15°C° 0.2 mm 1 mps 733 mmHg 84%
    21:00 +15°C° 0.1 mm 1 mps 733 mmHg 85%
    22:00 +14°C° 0.1 mm 2 mps 733 mmHg 86%
    23:00 +14°C° 0.1 mm 2 mps 733 mmHg 87%

    Tomorrow, 1 June, Monday

    Time Temperature Precipitation Wind Pressure Humidity
    00:00 +13°C° 0.2 mm 2 mps 732 mmHg 89%
    01:00 +13°C° 0.2 mm 2 mps 732 mmHg 90%
    02:00 +13°C° 0.2 mm 2 mps 732 mmHg 91%
    03:00 +13°C° 0.1 mm 2 mps 732 mmHg 91%
    04:00 +13°C° 0.1 mm 2 mps 732 mmHg 91%
    05:00 +13°C° 0.1 mm 1 mps 732 mmHg 91%
    06:00 +13°C° 0.1 mm 2 mps 732 mmHg 90%
    07:00 +13°C° 0.1 mm 2 mps 732 mmHg 88%
    08:00 +14°C° 0.1 mm 2 mps 732 mmHg 87%
    09:00 +15°C° 0 mm 2 mps 733 mmHg 79%
    10:00 +17°C° 0 mm 2 mps 733 mmHg 71%
    11:00 +19°C° 0 mm 2 mps 733 mmHg 62%
    12:00 +19°C° 0.4 mm 2 mps 732 mmHg 64%
    13:00 +20°C° 0.4 mm 1 mps 732 mmHg 65%
    14:00 +21°C° 0.4 mm 1 mps 732 mmHg 67%
    15:00 +19°C° 0.7 mm 2 mps 732 mmHg 70%
    16:00 +19°C° 0.7 mm 2 mps 731 mmHg 72%
    17:00 +18°C° 0.7 mm 2 mps 731 mmHg 75%
    18:00 +18°C° 0.3 mm 1 mps 731 mmHg 79%
    19:00 +15°C° 0.3 mm 1 mps 731 mmHg 83%
    20:00 +14°C° 0.3 mm 1 mps 731 mmHg 87%
    21:00 +13°C° 0 mm 1 mps 731 mmHg 87%
    22:00 +13°C° 0 mm 1 mps 732 mmHg 87%
    23:00 +13°C° 0 mm 1 mps 732 mmHg 87%

    Day after tomorrow, 2 June, Tuesday

    Time Temperature Precipitation Wind Pressure Humidity
    00:00 +12°C° 0 mm 1 mps 731 mmHg 89%
    01:00 +12°C° 0 mm 1 mps 731 mmHg 91%
    02:00 +12°C° 0 mm 2 mps 731 mmHg 93%
    03:00 +12°C° 0 mm 1 mps 731 mmHg 93%
    04:00 +11°C° 0 mm 1 mps 731 mmHg 94%
    05:00 +11°C° 0 mm 1 mps 731 mmHg 94%
    06:00 +12°C° 0 mm 1 mps 731 mmHg 91%
    07:00 +13°C° 0 mm 2 mps 731 mmHg 88%
    08:00 +15°C° 0 mm 2 mps 732 mmHg 85%
    09:00 +15°C° 0.4 mm 2 mps 732 mmHg 85%
    10:00 +16°C° 0.4 mm 3 mps 732 mmHg 85%
    11:00 +16°C° 0.4 mm 3 mps 732 mmHg 85%
    12:00 +16°C° 0.7 mm 3 mps 732 mmHg 84%
    13:00 +17°C° 0.7 mm 4 mps 731 mmHg 84%
    14:00 +17°C° 0.7 mm 4 mps 731 mmHg 83%
    15:00 +15°C° 0.4 mm 4 mps 731 mmHg 85%
    16:00 +15°C° 0.4 mm 4 mps 731 mmHg 87%
    17:00 +14°C° 0.4 mm 4 mps 731 mmHg 89%
    18:00 +13°C° 0.1 mm 3 mps 731 mmHg 91%
    19:00 +12°C° 0.1 mm 3 mps 731 mmHg 93%
    20:00 +13°C° 0.1 mm 2 mps 731 mmHg 95%
    21:00 +12°C° 0 mm 2 mps 731 mmHg 96%
    22:00 +12°C° 0 mm 1 mps 731 mmHg 96%
    23:00 +11°C° 0 mm 1 mps 731 mmHg 96%

    3 June, Wednesday

    Time Temperature Precipitation Wind Pressure Humidity
    00:00 +11°C° 0 mm 1 mps 731 mmHg 95%
    01:00 +11°C° 0 mm 1 mps 731 mmHg 94%
    02:00 +11°C° 0 mm 1 mps 731 mmHg 93%
    03:00 +10°C° 0 mm 1 mps 731 mmHg 93%
    04:00 +10°C° 0 mm 1 mps 731 mmHg 94%
    05:00 +8°C° 0 mm 2 mps 731 mmHg 94%
    06:00 +10°C° 0 mm 2 mps 731 mmHg 88%
    07:00 +13°C° 0 mm 2 mps 731 mmHg 81%
    08:00 +15°C° 0 mm 2 mps 732 mmHg 75%
    09:00 +16°C° 0 mm 2 mps 732 mmHg 69%
    10:00 +17°C° 0 mm 2 mps 732 mmHg 62%
    11:00 +18°C° 0 mm 2 mps 733 mmHg 56%
    12:00 +19°C° 0.1 mm 2 mps 732 mmHg 57%
    13:00 +19°C° 0.1 mm 2 mps 732 mmHg 58%
    14:00 +19°C° 0.1 mm 2 mps 732 mmHg 59%
    15:00 +19°C° 0.3 mm 2 mps 732 mmHg 63%
    16:00 +19°C° 0.3 mm 2 mps 732 mmHg 66%
    17:00 +18°C° 0.3 mm 2 mps 732 mmHg 69%
    18:00 +17°C° 0.1 mm 2 mps 732 mmHg 75%
    19:00 +15°C° 0.1 mm 2 mps 732 mmHg 80%
    20:00 +13°C° 0.1 mm 2 mps 732 mmHg 86%
    21:00 +13°C° 0 mm 2 mps 732 mmHg 87%
    22:00 +13°C° 0 mm 2 mps 733 mmHg 88%
    23:00 +12°C° 0 mm 2 mps 733 mmHg 89%

    4 June, Thursday

    Time Temperature Precipitation Wind Pressure Humidity
    00:00 +12°C° 0 mm 2 mps 733 mmHg 90%
    01:00 +12°C° 0 mm 2 mps 733 mmHg 90%
    02:00 +10°C° 0 mm 2 mps 732 mmHg 91%
    03:00 +10°C° 0 mm 2 mps 732 mmHg 90%
    04:00 +10°C° 0 mm 2 mps 732 mmHg 90%
    05:00 +10°C° 0 mm 2 mps 732 mmHg 89%
    06:00 +13°C° 0 mm 2 mps 733 mmHg 84%
    07:00 +15°C° 0 mm 2 mps 733 mmHg 78%
    08:00 +17°C° 0 mm 2 mps 733 mmHg 72%
    09:00 +19°C° 0 mm 2 mps 734 mmHg 67%
    10:00 +20°C° 0 mm 3 mps 734 mmHg 62%
    11:00 +21°C° 0 mm 3 mps 734 mmHg 57%
    12:00 +22°C° 0.2 mm 3 mps 734 mmHg 57%
    13:00 +22°C° 0.2 mm 3 mps 734 mmHg 58%
    14:00 +22°C° 0.2 mm 4 mps 734 mmHg 58%
    15:00 +22°C° 0.1 mm 3 mps 734 mmHg 59%
    16:00 +22°C° 0.1 mm 3 mps 734 mmHg 61%
    17:00 +22°C° 0.1 mm 3 mps 734 mmHg 63%
    18:00 +20°C° 0.1 mm 3 mps 733 mmHg 70%
    19:00 +18°C° 0.1 mm 3 mps 733 mmHg 77%
    20:00 +17°C° 0.1 mm 3 mps 733 mmHg 84%
    21:00 +16°C° 0 mm 3 mps 734 mmHg 84%
    22:00 +16°C° 0 mm 3 mps 734 mmHg 84%
    23:00 +14°C° 0 mm 3 mps 734 mmHg 83%

    5 June, Friday

    Time Temperature Precipitation Wind Pressure Humidity
    00:00 +14°C° 0 mm 3 mps 734 mmHg 82%
    01:00 +14°C° 0 mm 3 mps 734 mmHg 81%
    02:00 +13°C° 0 mm 3 mps 733 mmHg 80%
    03:00 +13°C° 0 mm 3 mps 733 mmHg 81%
    04:00 +13°C° 0 mm 3 mps 733 mmHg 82%
    05:00 +13°C° 0 mm 3 mps 733 mmHg 82%
    06:00 +16°C° 0 mm 3 mps 734 mmHg 78%
    07:00 +18°C° 0 mm 4 mps 734 mmHg 73%
    08:00 +20°C° 0 mm 4 mps 734 mmHg 69%
    09:00 +21°C° 0 mm 4 mps 735 mmHg 66%
    10:00 +22°C° 0 mm 5 mps 735 mmHg 64%
    11:00 +25°C° 0 mm 5 mps 735 mmHg 62%
    12:00 +25°C° 0 mm 5 mps 735 mmHg 61%
    13:00 +26°C° 0 mm 5 mps 735 mmHg 60%
    14:00 +27°C° 0 mm 5 mps 735 mmHg 59%
    15:00 +26°C° 0.3 mm 5 mps 735 mmHg 63%
    16:00 +26°C° 0.3 mm 4 mps 734 mmHg 67%
    17:00 +25°C° 0.3 mm 4 mps 734 mmHg 71%
    18:00 +22°C° 0.1 mm 4 mps 734 mmHg 74%
    19:00 +21°C° 0.1 mm 3 mps 734 mmHg 77%
    20:00 +19°C° 0.1 mm 3 mps 734 mmHg 80%
    21:00 +19°C° 0 mm 3 mps 734 mmHg 81%
    22:00 +18°C° 0 mm 3 mps 735 mmHg 82%
    23:00 +18°C° 0 mm 3 mps 735 mmHg 83%
    Show more